Managua, Nicaragua

3:02 AM CST on February 26, 2017 (GMT -0600)
Augusto Cesar Sandino

Weather History for MNMG - August, 2013

Change the Weather History Date:

Monday, August 5, 2013

  Actual Average Record
Temperature  
Mean Temperature 80 °F -  
Max Temperature 87 °F 89 °F 96 °F (2014)
Min Temperature 73 °F 71 °F 73 °F (1996)
Cooling Degree Days 15    
Growing Degree Days 30 (Base 50)    
Moisture  
Dew Point 73 °F    
Average Humidity 82    
Maximum Humidity 89    
Minimum Humidity 66    
Precipitation  
Precipitation 0.00 in - - ()
Sea Level Pressure  
Sea Level Pressure 29.85 in    
Wind  
Wind Speed 5 mph ()    
Max Wind Speed 21 mph    
Max Gust Speed -    
Visibility 6.0 miles    
Events      
Averages and records for this station are not official NWS values.
T = Trace of Precipitation, MM = Missing Value Source: Averaged Metar Reports

Daily Weather History Graph

Daily Weather History Graph

Search for Another Location

Airport or City:

Trip Planner

Search our weather history database for the weather conditions in past years. The results will help you decide how hot, cold, wet, or windy it might be!

Date:

Astronomy

Aug. 05, 2013 Rise Set
Actual Time 5:32 AM CST 6:08 PM CST
Civil Twilight 5:09 AM CST 6:31 PM CST
Nautical Twilight 4:43 AM CST 6:57 PM CST
Astronomical Twilight 4:17 AM CST 7:23 PM CST
Moon 4:24 AM CST (8/5) 5:15 PM CST (8/5)
Length of Visible Light 13h 21m
Length of Day
12h 36m
Waning Crescent, 1% of the Moon is Illuminated
Aug 5
Waning Crescent
Aug 6
New
Aug 14
First Quarter
Aug 20
Full
Aug 28
Last Quarter

Hourly Weather History & Observations

Time (CST) Temp. Heat Index Dew Point Humidity Pressure Visibility Wind Dir Wind Speed Gust Speed Precip Events Conditions
12:00 AM 75.2 °F - 69.8 °F 83% 29.86 in 6.2 mi Calm Calm - N/A   Partly Cloudy
2:00 AM 75.2 °F - 69.8 °F 83% 29.83 in 6.2 mi Calm Calm - N/A   Partly Cloudy
3:00 AM 73.4 °F - 69.8 °F 88% 29.83 in 6.2 mi Calm Calm - N/A   Partly Cloudy
4:00 AM 73.4 °F - 69.8 °F 88% 29.80 in 6.2 mi Calm Calm - N/A   Partly Cloudy
5:00 AM 73.4 °F - 69.8 °F 88% 29.83 in 6.2 mi Calm Calm - N/A   Partly Cloudy
6:00 AM 75.2 °F - 71.6 °F 89% 29.83 in 6.2 mi Calm Calm - N/A   Scattered Clouds
7:00 AM 77.0 °F - 73.4 °F 89% 29.86 in 6.2 mi ESE 6.9 mph - N/A   Mostly Cloudy
7:20 AM - - - N/A% - 5.6 mi ESE 6.9 mph - N/A   Light Drizzle
8:00 AM 78.8 °F - 75.2 °F 89% 29.89 in 5.0 mi ESE 9.2 mph - N/A   Light Drizzle
8:10 AM - - - N/A% - 6.2 mi SSE 4.6 mph - N/A   Scattered Clouds
9:00 AM 82.4 °F 89.5 °F 75.2 °F 79% 29.89 in 6.2 mi ESE 9.2 mph - N/A   Scattered Clouds
10:00 AM 82.4 °F 89.5 °F 75.2 °F 79% 29.89 in 6.2 mi ESE 9.2 mph - N/A   Scattered Clouds
11:00 AM 86.0 °F 95.1 °F 75.2 °F 70% 29.86 in 6.2 mi East 11.5 mph - N/A   Mostly Cloudy
11:25 AM - - - N/A% - 5.6 mi ESE 11.5 mph - N/A   Light Drizzle
12:00 PM 84.2 °F 94.1 °F 77.0 °F 79% 29.86 in 6.2 mi ESE 16.1 mph - N/A   Scattered Clouds
1:00 PM 87.8 °F 97.6 °F 75.2 °F 66% 29.83 in 6.2 mi East 13.8 mph - N/A   Partly Cloudy
1:20 PM - - - N/A% - 5.0 mi East 20.7 mph - N/A   Light Drizzle
2:00 PM 82.4 °F 89.5 °F 75.2 °F 79% 29.83 in 6.2 mi ESE 18.4 mph - N/A   Scattered Clouds
3:00 PM 84.2 °F 92.3 °F 75.2 °F 74% 29.83 in 6.2 mi East 18.4 mph - N/A   Scattered Clouds
4:00 PM 82.4 °F 89.5 °F 75.2 °F 79% 29.80 in 6.2 mi East 13.8 mph - N/A   Scattered Clouds
5:00 PM 80.6 °F 84.6 °F 71.6 °F 74% 29.80 in 6.2 mi East 4.6 mph - N/A   Scattered Clouds
6:00 PM 78.8 °F - 69.8 °F 74% 29.83 in 5.6 mi East 6.9 mph - N/A   Drizzle
7:00 PM 75.2 °F - 71.6 °F 89% 29.86 in 5.6 mi ESE 4.6 mph - N/A   Light Drizzle
8:00 PM 75.2 °F - 71.6 °F 89% 29.86 in 5.6 mi SE 4.6 mph - N/A   Light Drizzle
8:25 PM - - - N/A% - 6.2 mi Calm Calm - N/A   Scattered Clouds
9:00 PM 75.2 °F - 71.6 °F 89% 29.86 in 6.2 mi SE 4.6 mph - N/A   Scattered Clouds
10:00 PM 75.2 °F - 71.6 °F 89% 29.89 in 6.2 mi SE 6.9 mph - N/A   Scattered Clouds
11:00 PM 75.2 °F - 71.6 °F 89% 29.89 in 6.2 mi SSE 4.6 mph - N/A   Scattered Clouds